VE3DVC Weather Reports


time (UTC)temp
C
wind
direction
speed
KPH
gust
KPH
rain 1hr
cm
rain 24hr
cm
rain mn
cm
humidity
%
barometer
mb
20260510094315 5 0 0.0 0.0 0.00 0.00 0.00 84 1012.1
20260510093114 5 0 0.0 0.0 0.00 0.00 0.00 83 1011.9
20260510091914 6 0 0.0 0.0 0.00 0.00 0.00 79 1011.6
20260510090154 6 0 0.0 0.0 0.00 0.00 0.00 78 1011.3
20260510084954 6 0 0.0 0.0 0.00 0.00 0.00 77 1011.1
20260510082504 7 0 0.0 3.2 0.00 0.00 0.00 76 1010.6
20260510081304 7 0 0.0 6.4 0.00 0.00 0.00 76 1010.4
20260510080104 7 0 0.0 4.8 0.00 0.00 0.00 77 1010.5
20260510074905 7 0 0.0 3.2 0.00 0.00 0.00 77 1010.3
20260510073705 7 0 0.0 3.2 0.00 0.00 0.00 76 1010.0
20260510072504 7 0 0.0 3.2 0.00 0.00 0.00 77 1009.9
20260510071304 8 0 0.0 3.2 0.00 0.00 0.00 77 1009.6
20260510070104 8 0 0.0 4.8 0.00 0.00 0.00 76 1009.5
20260510064904 8 0 0.0 4.8 0.00 0.00 0.00 77 1009.3
20260510063705 8 0 0.0 6.4 0.00 0.00 0.00 79 1009.2
20260510062505 8 0 0.0 4.8 0.00 0.00 0.00 81 1008.9
20260510061304 8 0 0.0 3.2 0.00 0.00 0.00 82 1009.0
20260510060104 8 0 0.0 3.2 0.00 0.00 0.00 84 1008.8
20260510054904 8 0 0.0 3.2 0.00 0.00 0.00 86 1008.8
20260510053705 8 0 0.0 3.2 0.00 0.00 0.00 87 1008.6
20260510052504 9 0 0.0 3.2 0.00 0.00 0.00 87 1008.7
20260510051304 9 0 0.0 4.8 0.00 0.00 0.00 88 1008.5
20260510050104 9 0 0.0 3.2 0.00 0.00 0.00 89 1008.4
20260510044905 10 0 0.0 3.2 0.00 0.00 0.00 90 1008.1
20260510043705 10 0 0.0 3.2 0.00 0.00 0.00 91 1008.2
20260510041849 10 310 1.6 4.8 0.00 0.00 0.00 92 1007.6
20260510040650 10 300 1.6 6.4 0.00 0.00 0.00 91 1007.8
20260510035450 10 0 0.0 1.6 0.00 0.00 0.00 91 1007.0
20260510034250 10 0 0.0 0.0 0.00 0.00 0.00 91 1006.6
20260510033049 10 0 0.0 0.0 0.00 0.00 0.00 91 1006.6
20260510031850 10 0 0.0 1.6 0.00 0.00 0.00 91 1007.4
20260510030650 10 0 0.0 0.0 0.00 0.00 0.00 91 1006.1
20260510025450 10 0 0.0 0.0 0.00 0.00 0.00 91 1005.9
20260510023515 11 0 0.0 0.0 0.00 0.00 0.00 91 1005.7
20260510022316 11 0 0.0 0.0 0.00 0.00 0.00 91 1005.8
20260510021115 11 0 0.0 1.6 0.00 0.00 0.00 91 1005.9
20260510015915 11 0 0.0 0.0 0.00 0.00 0.00 91 1005.7
20260510014716 11 0 0.0 0.0 0.00 0.00 0.00 91 1005.6
20260510013515 11 0 0.0 0.0 0.00 0.00 0.00 91 1005.3
20260510012316 11 0 0.0 0.0 0.00 0.00 0.00 91 1004.9
20260510011115 11 0 0.0 0.0 0.00 0.00 0.00 92 1004.8
20260510005915 11 0 0.0 0.0 0.00 0.00 0.00 91 1004.6
20260510004715 11 0 0.0 0.0 0.00 0.00 0.00 92 1004.5
20260510003516 11 0 0.0 0.0 0.00 0.00 0.00 91 1004.4
20260510002316 12 0 0.0 0.0 0.00 0.00 0.00 92 1004.3
20260510001115 12 0 0.0 0.0 0.00 0.00 0.00 91 1004.2
20260509235916 12 0 0.0 0.0 0.00 0.00 0.00 92 1003.9
20260509234715 12 0 0.0 0.0 0.00 0.00 0.00 91 1003.7
20260509233514 12 0 0.0 0.0 0.00 0.00 0.00 91 1003.6
20260509232315 12 0 0.0 0.0 0.00 0.00 0.00 91 1003.5
20260509231116 12 0 0.0 0.0 0.00 0.00 0.00 91 1003.7
20260509225915 12 0 0.0 1.6 0.00 0.00 0.00 91 1003.6
20260509224716 12 0 0.0 0.0 0.00 0.00 0.00 91 1003.7
20260509222906 12 0 0.0 0.0 0.00 0.00 0.00 91 1003.7
20260509221706 11 0 0.0 0.0 0.00 0.00 0.00 91 1003.6
20260509220506 11 0 0.0 8.0 0.00 0.00 0.00 90 1003.9
20260509215307 12 0 0.0 4.8 0.00 0.00 0.00 87 1005.1
20260509214108 13 296 1.6 14.5 0.00 0.00 0.00 82 1005.5
20260509212906 15 0 0.0 3.2 0.00 0.00 0.00 78 1003.5
20260509211706 15 0 0.0 1.6 0.00 0.00 0.00 77 1002.9
20260509210507 16 0 0.0 4.8 0.00 0.00 0.00 76 1002.5
20260509205308 16 0 0.0 4.8 0.00 0.00 0.00 76 1002.5
20260509202906 16 0 0.0 4.8 0.00 0.00 0.00 76 1002.5
20260509201706 16 0 0.0 3.2 0.00 0.00 0.00 77 1002.6
20260509200506 16 227 1.6 6.4 0.00 0.00 0.00 75 1003.0
20260509195307 16 0 0.0 8.0 0.00 0.00 0.00 74 1003.6
20260509193429 17 0 0.0 12.9 0.00 0.00 0.00 74 1003.5
20260509192229 16 0 0.0 9.7 0.00 0.00 0.00 74 1003.6
20260509191029 16 186 3.2 9.7 0.00 0.00 0.00 72 1004.0
20260509185829 16 237 1.6 14.5 0.00 0.00 0.00 73 1004.0
20260509183429 17 242 1.6 8.0 0.00 0.00 0.00 73 1003.8
20260509182229 16 0 0.0 14.5 0.00 0.00 0.00 77 1004.0
20260509181029 15 0 0.0 9.7 0.00 0.00 0.00 80 1004.1
20260509175830 15 205 1.6 6.4 0.00 0.00 0.00 79 1004.4
20260509174630 15 218 3.2 11.3 0.00 0.00 0.00 80 1004.5
20260509165534 15 0 0.0 6.4 0.00 0.00 0.00 82 1005.0
20260509164335 15 0 0.0 6.4 0.00 0.00 0.00 81 1005.2
20260509163134 15 202 1.6 11.3 0.00 0.00 0.00 81 1005.3
20260509161934 15 208 1.6 9.7 0.00 0.00 0.00 82 1005.2
20260509160734 15 0 0.0 6.4 0.00 0.00 0.00 82 1005.4
20260509155535 15 227 1.6 9.7 0.00 0.00 0.00 81 1005.5
20260509154334 15 191 1.6 11.3 0.00 0.00 0.00 82 1005.3
20260509153134 15 222 1.6 11.3 0.00 0.00 0.00 86 1005.5
20260509151933 14 0 0.0 4.8 0.00 0.00 0.00 86 1005.8
20260509150734 13 0 0.0 8.0 0.00 0.00 0.00 88 1005.9
20260509145534 13 234 1.6 6.4 0.00 0.00 0.00 88 1005.9
20260509144334 13 0 0.0 6.4 0.00 0.00 0.00 88 1005.9
20260509143134 13 188 1.6 8.0 0.00 0.00 0.00 90 1005.7
20260509141934 13 0 0.0 6.4 0.00 0.00 0.00 91 1005.6
20260509140734 12 0 0.0 4.8 0.00 0.00 0.00 91 1005.7
20260509135533 12 0 0.0 3.2 0.00 0.00 0.00 92 1006.0
20260509134334 12 202 1.6 4.8 0.00 0.00 0.00 92 1006.1
20260509133135 12 0 0.0 1.6 0.00 0.00 0.00 92 1006.1
20260509131934 11 0 0.0 3.2 0.00 0.00 0.00 92 1006.2
20260509130734 11 0 0.0 4.8 0.00 0.00 0.00 92 1006.1
20260509125534 11 0 0.0 3.2 0.00 0.00 0.00 91 1006.3
20260509124334 11 0 0.0 8.0 0.00 0.00 0.00 91 1006.2
20260509123134 11 0 0.0 4.8 0.00 0.00 0.00 91 1006.3
20260509121934 11 0 0.0 3.2 0.00 0.00 0.00 91 1006.4
20260509120734 11 0 0.0 1.6 0.00 0.00 0.00 91 1006.4
20260509115534 10 0 0.0 1.6 0.00 0.00 0.00 91 1006.4
20260509114333 10 0 0.0 1.6 0.00 0.00 0.00 91 1006.4
20260509113135 10 0 0.0 0.0 0.00 0.00 0.00 91 1006.4
20260509111624 10 0 0.0 0.0 0.00 0.00 0.00 91 1006.4
20260509110424 9 0 0.0 0.0 0.00 0.00 0.00 91 1006.3
20260509105224 9 0 0.0 0.0 0.00 0.00 0.00 91 1006.2
20260509103025 8 0 0.0 0.0 0.00 0.00 0.00 92 1006.3
20260509101825 8 0 0.0 0.0 0.00 0.00 0.00 91 1006.3
20260509100625 8 0 0.0 0.0 0.00 0.00 0.00 92 1006.4
20260509095425 8 0 0.0 0.0 0.00 0.00 0.00 91 1006.6